Location: Murdochville
(48.9591°N, 65.4950°W)
Time: 22:35:24
(UTC-04:00)

Envisat - Pass Details

Date: 25 April 2026
Orbit: 761 x 762 km, 98.4° (Epoch: 15 May)

Event Time Altitude Azimuth Distance (km) Brightness Sun altitude
Rises 04:16:14 0° 6° (N) 3,236 6.8 -9.0°
Reaches altitude 10° 04:18:48 10° 355° (N) 2,305 5.9 -8.6°
Maximum altitude 04:23:04 28° 298° (WNW) 1,406 4.1 -8.0°
Drops below altitude 10° 04:27:18 10° 240° (WSW) 2,292 4.8 -7.4°
Enters shadow 04:27:33 - 239° (WSW) 2,375 4.8 -7.4°
